Time,TemperatureF,DewpointF,PressureIn,WindDirection,WindDirectionDegrees,WindSpeedMPH,WindSpeedGustMPH,Humidity,HourlyPrecipIn,Conditions,Clouds,dailyrainin,SoftwareType,DateUTC
2013-12-02 00:04:00,31.1,23.8,29.03,East,90,5.8,5.8,74,0.00,CLR,,0.00,WeatherDisplay:10.37,2013-12-02 06:04:00,
2013-12-02 00:09:00,31.8,24.5,29.03,ENE,68,5.8,5.8,74,0.00,CLR,,0.00,WeatherDisplay:10.37,2013-12-02 06:09:00,
2013-12-02 00:14:00,32.0,24.6,29.03,East,90,4.6,4.6,74,0.00,CLR,,0.00,WeatherDisplay:10.37,2013-12-02 06:14:00,
2013-12-02 00:19:00,32.5,25.2,29.03,ENE,68,5.8,5.8,74,0.00,CLR,,0.00,WeatherDisplay:10.37,2013-12-02 06:19:00,
2013-12-02 00:24:00,32.7,25.3,29.03,ESE,112,4.6,4.6,74,0.00,CLR,,0.00,WeatherDisplay:10.37,2013-12-02 06:24:00,
2013-12-02 00:29:00,32.7,25.0,29.03,ENE,68,5.8,5.8,73,0.00,CLR,,0.00,WeatherDisplay:10.37,2013-12-02 06:29:00,
2013-12-02 00:34:00,32.9,25.5,29.03,ENE,68,3.5,3.5,74,0.00,CLR,,0.00,WeatherDisplay:10.37,2013-12-02 06:34:00,
2013-12-02 00:39:00,33.1,25.7,29.03,East,90,5.8,5.8,74,0.00,CLR,,0.00,WeatherDisplay:10.37,2013-12-02 06:39:00,
2013-12-02 00:45:00,33.1,25.4,29.03,East,90,4.6,4.6,73,0.00,CLR,,0.00,WeatherDisplay:10.37,2013-12-02 06:45:00,
2013-12-02 00:50:00,33.3,25.9,29.03,ENE,68,5.8,5.8,74,0.00,CLR,,0.00,WeatherDisplay:10.37,2013-12-02 06:50:00,
2013-12-02 00:55:00,33.3,25.5,29.03,ENE,68,3.5,3.5,73,0.00,CLR,,0.00,WeatherDisplay:10.37,2013-12-02 06:55:00,
2013-12-02 01:00:00,33.3,25.9,29.03,ENE,68,3.5,3.5,74,0.00,CLR,,0.00,WeatherDisplay:10.37,2013-12-02 07:00:00,
2013-12-02 01:05:00,33.3,25.9,29.03,ENE,68,2.9,2.9,74,0.00,CLR,,0.00,WeatherDisplay:10.37,2013-12-02 07:05:00,
2013-12-02 01:10:00,33.3,25.9,29.03,East,90,2.6,2.6,74,0.00,CLR,,0.00,WeatherDisplay:10.37,2013-12-02 07:10:00,
2013-12-02 01:15:00,33.3,25.9,29.03,ENE,68,3.5,3.5,74,0.00,CLR,,0.00,WeatherDisplay:10.37,2013-12-02 07:15:00,
2013-12-02 01:20:00,33.3,25.9,29.03,East,90,3.5,3.5,74,0.00,CLR,,0.00,WeatherDisplay:10.37,2013-12-02 07:20:00,
2013-12-02 01:25:00,33.3,25.9,29.03,East,90,2.3,2.3,74,0.00,CLR,,0.00,WeatherDisplay:10.37,2013-12-02 07:25:00,
2013-12-02 01:30:00,33.3,25.9,29.03,ESE,112,3.5,3.5,74,0.00,CLR,,0.00,WeatherDisplay:10.37,2013-12-02 07:30:00,
2013-12-02 01:35:00,33.3,26.2,29.03,East,90,3.5,3.5,75,0.00,CLR,,0.00,WeatherDisplay:10.37,2013-12-02 07:35:00,
2013-12-02 01:40:00,33.4,26.4,29.03,East,90,3.5,3.5,75,0.00,CLR,,0.00,WeatherDisplay:10.37,2013-12-02 07:40:00,
2013-12-02 01:45:00,33.6,26.5,29.03,SE,135,2.3,2.6,75,0.00,CLR,,0.00,WeatherDisplay:10.37,2013-12-02 07:45:00,
2013-12-02 01:50:00,33.8,26.7,29.00,SE,135,5.8,5.8,75,0.00,CLR,,0.00,WeatherDisplay:10.37,2013-12-02 07:50:00,
2013-12-02 01:55:00,33.8,26.7,29.00,ESE,112,2.6,3.3,75,0.00,CLR,,0.00,WeatherDisplay:10.37,2013-12-02 07:55:00,
2013-12-02 02:00:00,34.0,27.2,29.00,SE,135,5.8,5.8,76,0.00,CLR,,0.00,WeatherDisplay:10.37,2013-12-02 08:00:00,
2013-12-02 02:05:00,34.0,27.2,29.00,SSE,158,4.6,4.6,76,0.00,CLR,,0.00,WeatherDisplay:10.37,2013-12-02 08:05:00,
2013-12-02 02:10:00,34.0,27.2,29.00,SE,135,4.6,4.6,76,0.00,CLR,,0.00,WeatherDisplay:10.37,2013-12-02 08:10:00,
2013-12-02 02:15:00,34.0,27.2,29.00,ESE,112,3.5,3.5,76,0.00,CLR,,0.00,WeatherDisplay:10.37,2013-12-02 08:15:00,
2013-12-02 02:20:00,33.8,27.0,29.00,ESE,112,2.3,2.9,76,0.00,CLR,,0.00,WeatherDisplay:10.37,2013-12-02 08:20:00,
2013-12-02 02:25:00,33.8,27.4,29.00,SSE,158,3.5,3.5,77,0.00,CLR,,0.00,WeatherDisplay:10.37,2013-12-02 08:25:00,
2013-12-02 02:30:00,33.8,27.4,29.00,East,90,3.5,3.5,77,0.00,CLR,,0.00,WeatherDisplay:10.37,2013-12-02 08:30:00,
2013-12-02 02:35:00,33.8,27.4,29.00,ESE,112,3.5,3.5,77,0.00,CLR,,0.00,WeatherDisplay:10.37,2013-12-02 08:35:00,
2013-12-02 02:40:00,33.8,27.7,29.00,SE,135,4.6,4.6,78,0.00,CLR,,0.00,WeatherDisplay:10.37,2013-12-02 08:40:00,
2013-12-02 02:45:00,33.8,27.4,29.00,ESE,112,3.5,3.5,77,0.00,CLR,,0.00,WeatherDisplay:10.37,2013-12-02 08:45:00,
2013-12-02 02:50:00,34.0,27.8,29.00,East,90,2.3,2.3,78,0.00,CLR,,0.00,WeatherDisplay:10.37,2013-12-02 08:50:00,
2013-12-02 02:55:00,34.0,27.8,29.00,East,90,3.5,3.5,78,0.00,CLR,,0.00,WeatherDisplay:10.37,2013-12-02 08:55:00,
2013-12-02 03:00:00,33.8,27.7,29.00,East,90,5.9,5.9,78,0.00,CLR,,0.00,WeatherDisplay:10.37,2013-12-02 09:00:00,
2013-12-02 03:05:00,33.8,27.7,28.97,East,90,2.9,3.1,78,0.00,CLR,,0.00,WeatherDisplay:10.37,2013-12-02 09:05:00,
2013-12-02 03:10:00,33.8,27.7,28.97,East,90,3.5,3.5,78,0.00,CLR,,0.00,WeatherDisplay:10.37,2013-12-02 09:10:00,
2013-12-02 03:15:00,33.8,27.7,28.97,East,90,4.7,4.7,78,0.00,CLR,,0.00,WeatherDisplay:10.37,2013-12-02 09:15:00,
2013-12-02 03:20:00,33.8,27.7,29.00,ESE,112,1.2,1.2,78,0.00,CLR,,0.00,WeatherDisplay:10.37,2013-12-02 09:20:00,
2013-12-02 03:25:00,33.8,27.7,29.00,ESE,112,4.6,4.6,78,0.00,CLR,,0.00,WeatherDisplay:10.37,2013-12-02 09:25:00,
2013-12-02 03:30:00,33.6,27.8,29.00,ESE,112,2.6,2.6,79,0.00,CLR,,0.00,WeatherDisplay:10.37,2013-12-02 09:30:00,
2013-12-02 03:35:00,33.6,27.8,28.97,ESE,112,2.3,2.4,79,0.00,CLR,,0.00,WeatherDisplay:10.37,2013-12-02 09:35:00,
2013-12-02 03:40:00,33.6,27.8,28.97,SE,135,3.5,3.5,79,0.00,CLR,,0.00,WeatherDisplay:10.37,2013-12-02 09:40:00,
2013-12-02 03:45:00,33.6,27.8,28.97,East,90,4.6,4.6,79,0.00,CLR,,0.00,WeatherDisplay:10.37,2013-12-02 09:45:00,
2013-12-02 03:50:00,33.6,27.8,28.97,ESE,112,4.6,4.6,79,0.00,CLR,,0.00,WeatherDisplay:10.37,2013-12-02 09:50:00,
2013-12-02 03:55:00,33.6,27.8,28.97,SE,135,3.6,3.6,79,0.00,CLR,,0.00,WeatherDisplay:10.37,2013-12-02 09:55:00,
2013-12-02 04:00:00,33.6,27.8,28.97,SSE,158,3.5,3.5,79,0.00,CLR,,0.00,WeatherDisplay:10.37,2013-12-02 10:00:00,
2013-12-02 04:05:00,33.6,28.1,28.97,ESE,112,3.5,3.5,80,0.00,CLR,,0.00,WeatherDisplay:10.37,2013-12-02 10:05:00,
2013-12-02 04:10:00,33.4,27.9,28.97,East,90,3.5,3.5,80,0.00,CLR,,0.00,WeatherDisplay:10.37,2013-12-02 10:10:00,
2013-12-02 04:15:00,33.3,27.8,28.97,East,90,4.6,4.6,80,0.00,CLR,,0.00,WeatherDisplay:10.37,2013-12-02 10:15:00,
2013-12-02 04:20:00,33.3,27.8,28.97,East,90,3.5,3.5,80,0.00,CLR,,0.00,WeatherDisplay:10.37,2013-12-02 10:20:00,
2013-12-02 04:25:00,33.3,27.8,28.97,SSE,158,2.6,2.9,80,0.00,CLR,,0.00,WeatherDisplay:10.37,2013-12-02 10:25:00,
2013-12-02 04:30:00,33.1,27.6,28.97,ESE,112,4.6,4.6,80,0.00,CLR,,0.00,WeatherDisplay:10.37,2013-12-02 10:30:00,
2013-12-02 04:35:00,33.3,28.1,28.97,ESE,112,4.6,4.6,81,0.00,CLR,,0.00,WeatherDisplay:10.37,2013-12-02 10:35:00,
2013-12-02 04:40:00,33.3,28.4,28.97,ESE,112,4.6,4.6,82,0.00,CLR,,0.00,WeatherDisplay:10.37,2013-12-02 10:40:00,
2013-12-02 04:45:00,33.3,28.4,28.97,East,90,3.5,3.5,82,0.00,CLR,,0.00,WeatherDisplay:10.37,2013-12-02 10:45:00,
2013-12-02 04:50:00,33.3,28.4,28.97,ESE,112,4.3,4.3,82,0.00,CLR,,0.00,WeatherDisplay:10.37,2013-12-02 10:50:00,
2013-12-02 04:55:00,33.4,28.8,28.97,SSE,158,10.4,10.4,83,0.00,CLR,,0.00,WeatherDisplay:10.37,2013-12-02 10:55:00,
2013-12-02 05:00:00,33.4,29.1,28.97,ESE,112,3.8,3.8,84,0.00,CLR,,0.00,WeatherDisplay:10.37,2013-12-02 11:00:00,
2013-12-02 05:05:00,33.6,29.0,28.94,SSE,158,3.5,3.5,83,0.00,CLR,,0.00,WeatherDisplay:10.37,2013-12-02 11:05:00,
2013-12-02 05:10:00,33.6,29.0,28.94,SSE,158,5.8,5.8,83,0.00,CLR,,0.00,WeatherDisplay:10.37,2013-12-02 11:10:00,
2013-12-02 05:15:00,33.6,29.0,28.94,ESE,112,4.6,5.6,83,0.00,CLR,,0.00,WeatherDisplay:10.37,2013-12-02 11:15:00,
2013-12-02 05:20:00,33.6,29.0,28.94,South,180,5.8,5.8,83,0.00,CLR,,0.00,WeatherDisplay:10.37,2013-12-02 11:20:00,
2013-12-02 05:25:00,33.6,29.0,28.94,ESE,112,4.6,4.6,83,0.00,CLR,,0.00,WeatherDisplay:10.37,2013-12-02 11:25:00,
2013-12-02 05:30:00,33.8,29.2,28.94,SE,135,4.6,4.6,83,0.00,CLR,,0.00,WeatherDisplay:10.37,2013-12-02 11:30:00,
2013-12-02 05:35:00,33.8,28.9,28.94,SSE,158,5.9,5.9,82,0.00,CLR,,0.00,WeatherDisplay:10.37,2013-12-02 11:35:00,
2013-12-02 05:40:00,34.0,29.4,28.94,ESE,112,5.9,5.9,83,0.00,CLR,,0.00,WeatherDisplay:10.37,2013-12-02 11:40:00,
2013-12-02 05:45:00,34.0,29.4,28.94,SE,135,6.9,6.9,83,0.00,CLR,,0.00,WeatherDisplay:10.37,2013-12-02 11:45:00,
2013-12-02 05:50:00,34.2,29.5,28.94,ESE,112,6.9,6.9,83,0.00,CLR,,0.00,WeatherDisplay:10.37,2013-12-02 11:50:00,
2013-12-02 05:55:00,34.2,29.5,28.94,ESE,112,8.1,8.1,83,0.00,CLR,,0.00,WeatherDisplay:10.37,2013-12-02 11:55:00,
2013-12-02 06:00:00,34.2,29.2,28.94,SE,135,5.8,5.8,82,0.00,CLR,,0.00,WeatherDisplay:10.37,2013-12-02 12:00:00,
2013-12-02 06:05:00,34.2,29.2,28.94,East,90,6.2,6.2,82,0.00,CLR,,0.00,WeatherDisplay:10.37,2013-12-02 12:05:00,
2013-12-02 06:10:00,34.3,29.4,28.94,SSE,158,5.8,5.8,82,0.00,CLR,,0.00,WeatherDisplay:10.37,2013-12-02 12:10:00,
2013-12-02 06:15:00,34.3,29.4,28.94,ESE,112,5.8,5.8,82,0.00,CLR,,0.00,WeatherDisplay:10.37,2013-12-02 12:15:00,
2013-12-02 06:20:00,34.3,29.4,28.94,SE,135,5.8,5.8,82,0.00,CLR,,0.00,WeatherDisplay:10.37,2013-12-02 12:20:00,
2013-12-02 06:25:00,34.3,29.4,28.94,SE,135,6.9,6.9,82,0.00,CLR,,0.00,WeatherDisplay:10.37,2013-12-02 12:25:00,
2013-12-02 06:30:00,34.3,29.4,28.94,ESE,112,4.6,4.7,82,0.00,CLR,,0.00,WeatherDisplay:10.37,2013-12-02 12:30:00,
2013-12-02 06:35:00,34.3,29.4,28.94,ESE,112,5.8,5.8,82,0.00,CLR,,0.00,WeatherDisplay:10.37,2013-12-02 12:35:00,
2013-12-02 06:40:00,34.3,29.4,28.94,ESE,112,4.6,4.6,82,0.00,CLR,,0.00,WeatherDisplay:10.37,2013-12-02 12:40:00,
2013-12-02 06:45:00,34.3,29.4,28.94,ESE,112,5.8,6.2,82,0.00,CLR,,0.00,WeatherDisplay:10.37,2013-12-02 12:45:00,
2013-12-02 06:50:00,34.3,29.1,28.94,ESE,112,7.8,7.8,81,0.00,CLR,,0.00,WeatherDisplay:10.37,2013-12-02 12:50:00,
2013-12-02 06:55:00,34.3,29.4,28.94,ESE,112,3.5,3.5,82,0.00,CLR,,0.00,WeatherDisplay:10.37,2013-12-02 12:55:00,
2013-12-02 07:00:00,34.3,29.4,28.94,SSE,158,6.9,6.9,82,0.00,CLR,,0.00,WeatherDisplay:10.37,2013-12-02 13:00:00,
2013-12-02 07:05:00,34.5,29.3,28.91,East,90,4.6,4.6,81,0.00,CLR,,0.00,WeatherDisplay:10.37,2013-12-02 13:05:00,
2013-12-02 07:10:00,34.7,29.5,28.91,ESE,112,5.8,5.8,81,0.00,CLR,,0.00,WeatherDisplay:10.37,2013-12-02 13:10:00,
2013-12-02 07:15:00,34.7,29.2,28.91,East,90,6.9,6.9,80,0.00,CLR,,0.00,WeatherDisplay:10.37,2013-12-02 13:15:00,
2013-12-02 07:20:00,34.9,29.3,28.94,ESE,112,6.9,6.9,80,0.00,CLR,,0.00,WeatherDisplay:10.37,2013-12-02 13:20:00,
2013-12-02 07:25:00,34.9,29.0,28.94,ENE,68,5.8,5.8,79,0.00,CLR,,0.00,WeatherDisplay:10.37,2013-12-02 13:25:00,
2013-12-02 07:30:00,34.9,29.0,28.94,SE,135,8.1,8.1,79,0.00,CLR,,0.00,WeatherDisplay:10.37,2013-12-02 13:30:00,
2013-12-02 07:35:00,35.1,29.2,28.91,ESE,112,2.6,3.3,79,0.00,CLR,,0.00,WeatherDisplay:10.37,2013-12-02 13:35:00,
2013-12-02 07:40:00,35.1,29.2,28.91,East,90,5.8,5.8,79,0.00,CLR,,0.00,WeatherDisplay:10.37,2013-12-02 13:40:00,
2013-12-02 07:45:00,35.1,29.2,28.91,SSE,158,5.8,5.8,79,0.00,CLR,,0.00,WeatherDisplay:10.37,2013-12-02 13:45:00,
2013-12-02 07:50:00,35.2,29.4,28.91,ESE,112,6.9,6.9,79,0.00,CLR,,0.00,WeatherDisplay:10.37,2013-12-02 13:50:00,
2013-12-02 07:55:00,35.2,29.4,28.91,SSE,158,6.9,6.9,79,0.00,CLR,,0.00,WeatherDisplay:10.37,2013-12-02 13:55:00,
2013-12-02 08:00:00,35.4,29.6,28.91,East,90,5.8,5.9,79,0.00,CLR,,0.00,WeatherDisplay:10.37,2013-12-02 14:00:00,
2013-12-02 08:05:00,35.4,29.6,28.91,ENE,68,3.8,3.8,79,0.00,CLR,,0.00,WeatherDisplay:10.37,2013-12-02 14:05:00,
2013-12-02 08:10:00,35.6,29.4,28.91,East,90,5.8,5.8,78,0.00,CLR,,0.00,WeatherDisplay:10.37,2013-12-02 14:10:00,
2013-12-02 08:15:00,35.8,29.6,28.91,SSE,158,4.6,4.6,78,0.00,CLR,,0.00,WeatherDisplay:10.37,2013-12-02 14:15:00,
2013-12-02 08:20:00,35.8,29.6,28.91,SE,135,5.8,5.8,78,0.00,CLR,,0.00,WeatherDisplay:10.37,2013-12-02 14:20:00,
2013-12-02 08:25:00,36.0,29.8,28.91,ESE,112,6.9,6.9,78,0.00,CLR,,0.00,WeatherDisplay:10.37,2013-12-02 14:25:00,
2013-12-02 08:30:00,36.1,29.6,28.91,ENE,68,3.5,3.5,77,0.00,CLR,,0.00,WeatherDisplay:10.37,2013-12-02 14:30:00,
2013-12-02 08:35:00,36.3,29.8,28.88,SSE,158,9.2,9.2,77,0.00,CLR,,0.00,WeatherDisplay:10.37,2013-12-02 14:35:00,
2013-12-02 08:40:00,36.7,30.1,28.88,ESE,112,5.4,5.4,77,0.00,CLR,,0.00,WeatherDisplay:10.37,2013-12-02 14:40:00,
2013-12-02 08:45:00,36.9,30.3,28.88,East,90,5.8,5.8,77,0.00,CLR,,0.00,WeatherDisplay:10.37,2013-12-02 14:45:00,
2013-12-02 08:50:00,37.0,30.2,28.91,ESE,112,5.9,5.9,76,0.00,CLR,,0.00,WeatherDisplay:10.37,2013-12-02 14:50:00,
2013-12-02 08:55:00,37.2,30.3,28.91,East,90,4.6,4.6,76,0.00,CLR,,0.00,WeatherDisplay:10.37,2013-12-02 14:55:00,
2013-12-02 09:00:00,37.6,30.4,28.91,SE,135,5.9,5.9,75,0.00,CLR,,0.00,WeatherDisplay:10.37,2013-12-02 15:00:00,
2013-12-02 09:05:00,37.6,30.4,28.88,East,90,6.9,6.9,75,0.00,CLR,,0.00,WeatherDisplay:10.37,2013-12-02 15:05:00,
2013-12-02 09:10:00,37.9,30.7,28.88,SSE,158,3.5,3.5,75,0.00,CLR,,0.00,WeatherDisplay:10.37,2013-12-02 15:10:00,
2013-12-02 09:15:00,37.9,30.7,28.88,ESE,112,4.0,4.0,75,0.00,CLR,,0.00,WeatherDisplay:10.37,2013-12-02 15:15:00,
2013-12-02 09:21:00,38.1,30.9,28.91,SE,135,3.5,4.3,75,0.00,CLR,,0.00,WeatherDisplay:10.37,2013-12-02 15:21:00,
2013-12-02 09:26:00,38.5,30.9,28.91,SE,135,3.5,6.7,74,0.00,CLR,,0.00,WeatherDisplay:10.37,2013-12-02 15:26:00,
2013-12-02 09:31:00,38.7,31.1,28.91,ESE,112,8.1,8.1,74,0.00,CLR,,0.00,WeatherDisplay:10.37,2013-12-02 15:31:00,
2013-12-02 09:36:00,39.2,31.3,28.91,ESE,112,5.8,5.8,73,0.00,CLR,,0.00,WeatherDisplay:10.37,2013-12-02 15:36:00,
2013-12-02 09:41:00,39.7,31.8,28.91,ESE,112,8.1,8.1,73,0.00,CLR,,0.00,WeatherDisplay:10.37,2013-12-02 15:41:00,
2013-12-02 09:46:00,40.5,32.5,28.91,South,180,5.8,5.8,73,0.00,CLR,,0.00,WeatherDisplay:10.37,2013-12-02 15:46:00,
2013-12-02 09:51:00,40.8,32.5,28.91,NE,45,4.6,4.6,72,0.00,CLR,,0.00,WeatherDisplay:10.37,2013-12-02 15:51:00,
2013-12-02 09:56:00,41.0,32.3,28.91,ESE,112,4.6,4.6,71,0.00,CLR,,0.00,WeatherDisplay:10.37,2013-12-02 15:56:00,
2013-12-02 10:01:00,41.4,32.7,28.91,ENE,68,5.8,5.8,71,0.00,CLR,,0.00,WeatherDisplay:10.37,2013-12-02 16:01:00,
2013-12-02 10:06:00,41.7,33.0,28.91,ESE,112,5.8,5.8,71,0.00,CLR,,0.00,WeatherDisplay:10.37,2013-12-02 16:06:00,
2013-12-02 10:11:00,42.1,33.0,28.91,ESE,112,8.1,8.1,70,0.00,CLR,,0.00,WeatherDisplay:10.37,2013-12-02 16:11:00,
2013-12-02 10:16:00,42.4,33.3,28.91,ENE,68,3.6,3.6,70,0.00,CLR,,0.00,WeatherDisplay:10.37,2013-12-02 16:16:00,
2013-12-02 10:21:00,42.8,33.3,28.91,SE,135,5.8,5.8,69,0.00,CLR,,0.00,WeatherDisplay:10.37,2013-12-02 16:21:00,
2013-12-02 10:26:00,43.0,33.5,28.91,ESE,112,4.6,4.6,69,0.00,CLR,,0.00,WeatherDisplay:10.37,2013-12-02 16:26:00,
2013-12-02 10:31:00,42.8,33.0,28.91,ENE,68,8.1,8.1,68,0.00,CLR,,0.00,WeatherDisplay:10.37,2013-12-02 16:31:00,
2013-12-02 10:36:00,42.8,33.0,28.88,SE,135,6.9,6.9,68,0.00,CLR,,0.00,WeatherDisplay:10.37,2013-12-02 16:36:00,
2013-12-02 10:41:00,43.2,33.3,28.88,ESE,112,6.9,6.9,68,0.00,CLR,,0.00,WeatherDisplay:10.37,2013-12-02 16:41:00,
2013-12-02 10:46:00,44.1,33.8,28.88,ESE,112,8.1,8.1,67,0.00,CLR,,0.00,WeatherDisplay:10.37,2013-12-02 16:46:00,
2013-12-02 10:51:00,45.1,34.5,28.88,SE,135,5.8,6.2,66,0.00,CLR,,0.00,WeatherDisplay:10.37,2013-12-02 16:51:00,
2013-12-02 10:56:00,46.4,35.3,28.88,East,90,3.5,3.5,65,0.00,CLR,,0.00,WeatherDisplay:10.37,2013-12-02 16:56:00,
2013-12-02 11:01:00,45.9,34.8,28.88,East,90,6.9,6.9,65,0.00,CLR,,0.00,WeatherDisplay:10.37,2013-12-02 17:01:00,
2013-12-02 11:06:00,46.4,34.9,28.88,SE,135,7.1,7.1,64,0.00,CLR,,0.00,WeatherDisplay:10.37,2013-12-02 17:06:00,
2013-12-02 11:11:00,46.0,34.1,28.88,SE,135,10.4,10.4,63,0.00,CLR,,0.00,WeatherDisplay:10.37,2013-12-02 17:11:00,
2013-12-02 11:16:00,45.9,34.0,28.88,SE,135,10.4,10.4,63,0.00,CLR,,0.00,WeatherDisplay:10.37,2013-12-02 17:16:00,
2013-12-02 11:21:00,45.5,33.2,28.85,SSE,158,8.1,8.1,62,0.00,CLR,,0.00,WeatherDisplay:10.37,2013-12-02 17:21:00,
2013-12-02 11:26:00,45.5,33.2,28.85,ESE,112,8.1,8.1,62,0.00,CLR,,0.00,WeatherDisplay:10.37,2013-12-02 17:26:00,
2013-12-02 11:31:00,45.1,32.9,28.85,East,90,6.0,6.0,62,0.00,CLR,,0.00,WeatherDisplay:10.37,2013-12-02 17:31:00,
2013-12-02 11:36:00,45.3,33.1,28.85,SE,135,5.8,5.8,62,0.00,CLR,,0.00,WeatherDisplay:10.37,2013-12-02 17:36:00,
2013-12-02 11:41:00,45.3,33.5,28.85,ESE,112,5.8,5.8,63,0.00,CLR,,0.00,WeatherDisplay:10.37,2013-12-02 17:41:00,
2013-12-02 11:46:00,45.1,33.3,28.85,SSE,158,4.6,4.6,63,0.00,CLR,,0.00,WeatherDisplay:10.37,2013-12-02 17:46:00,
2013-12-02 11:51:00,45.0,33.5,28.85,SE,135,6.0,6.0,64,0.00,CLR,,0.00,WeatherDisplay:10.37,2013-12-02 17:51:00,
2013-12-02 11:56:00,45.1,33.3,28.85,SE,135,2.6,2.6,63,0.00,CLR,,0.00,WeatherDisplay:10.37,2013-12-02 17:56:00,
2013-12-02 12:01:00,45.3,33.5,28.85,ESE,112,4.6,4.6,63,0.00,CLR,,0.00,WeatherDisplay:10.37,2013-12-02 18:01:00,
2013-12-02 12:06:00,45.7,33.8,28.85,SSE,158,5.8,5.8,63,0.00,CLR,,0.00,WeatherDisplay:10.37,2013-12-02 18:06:00,
2013-12-02 12:11:00,45.5,33.6,28.85,East,90,6.9,6.9,63,0.00,CLR,,0.00,WeatherDisplay:10.37,2013-12-02 18:11:00,
2013-12-02 12:16:00,46.0,33.7,28.85,ESE,112,8.1,8.1,62,0.00,CLR,,0.00,WeatherDisplay:10.37,2013-12-02 18:16:00,
2013-12-02 12:21:00,46.0,33.7,28.85,East,90,9.2,9.2,62,0.00,CLR,,0.00,WeatherDisplay:10.37,2013-12-02 18:21:00,
2013-12-02 12:26:00,46.2,33.9,28.85,ESE,112,6.9,6.9,62,0.00,CLR,,0.00,WeatherDisplay:10.37,2013-12-02 18:26:00,
2013-12-02 12:31:00,46.0,33.7,28.85,East,90,8.1,8.1,62,0.00,CLR,,0.00,WeatherDisplay:10.37,2013-12-02 18:31:00,
2013-12-02 12:36:00,45.9,33.2,28.85,SSE,158,10.4,10.4,61,0.00,CLR,,0.00,WeatherDisplay:10.37,2013-12-02 18:36:00,
2013-12-02 12:41:00,46.0,33.3,28.85,SSE,158,6.9,6.9,61,0.00,CLR,,0.00,WeatherDisplay:10.37,2013-12-02 18:41:00,
2013-12-02 12:46:00,46.6,33.8,28.85,ESE,112,5.8,5.8,61,0.00,CLR,,0.00,WeatherDisplay:10.37,2013-12-02 18:46:00,
2013-12-02 12:51:00,46.8,34.0,28.85,East,90,6.9,6.9,61,0.00,CLR,,0.00,WeatherDisplay:10.37,2013-12-02 18:51:00,
2013-12-02 12:56:00,46.6,33.4,28.85,ESE,112,10.4,10.4,60,0.00,CLR,,0.00,WeatherDisplay:10.37,2013-12-02 18:56:00,
2013-12-02 13:01:00,46.6,33.4,28.85,ESE,112,8.1,8.1,60,0.00,CLR,,0.00,WeatherDisplay:10.37,2013-12-02 19:01:00,
2013-12-02 13:06:00,46.8,34.0,28.82,ESE,112,5.8,5.8,61,0.00,CLR,,0.00,WeatherDisplay:10.37,2013-12-02 19:06:00,
2013-12-02 13:11:00,46.8,33.6,28.82,ESE,112,10.4,10.4,60,0.00,CLR,,0.00,WeatherDisplay:10.37,2013-12-02 19:11:00,
2013-12-02 13:16:00,46.8,34.0,28.82,East,90,5.8,5.8,61,0.00,CLR,,0.00,WeatherDisplay:10.37,2013-12-02 19:16:00,
2013-12-02 13:21:00,46.8,34.0,28.82,ESE,112,6.9,6.9,61,0.00,CLR,,0.00,WeatherDisplay:10.37,2013-12-02 19:21:00,
2013-12-02 13:26:00,46.9,34.2,28.82,NNE,22,4.6,4.6,61,0.00,CLR,,0.00,WeatherDisplay:10.37,2013-12-02 19:26:00,
2013-12-02 13:31:00,46.9,33.8,28.82,East,90,5.9,5.9,60,0.00,CLR,,0.00,WeatherDisplay:10.37,2013-12-02 19:31:00,
2013-12-02 13:36:00,46.8,34.0,28.79,ESE,112,8.1,8.1,61,0.00,CLR,,0.00,WeatherDisplay:10.37,2013-12-02 19:36:00,
2013-12-02 13:41:00,46.4,33.7,28.79,East,90,9.2,9.2,61,0.00,CLR,,0.00,WeatherDisplay:10.37,2013-12-02 19:41:00,
2013-12-02 13:46:00,46.2,33.9,28.79,ESE,112,9.2,9.2,62,0.00,CLR,,0.00,WeatherDisplay:10.37,2013-12-02 19:46:00,
2013-12-02 13:51:00,46.2,33.9,28.79,SSE,158,8.1,8.1,62,0.00,CLR,,0.00,WeatherDisplay:10.37,2013-12-02 19:51:00,
2013-12-02 13:56:00,46.2,33.9,28.79,SE,135,5.8,5.8,62,0.00,CLR,,0.00,WeatherDisplay:10.37,2013-12-02 19:56:00,
2013-12-02 14:01:00,46.0,33.7,28.79,ENE,68,5.8,5.8,62,0.00,CLR,,0.00,WeatherDisplay:10.37,2013-12-02 20:01:00,
2013-12-02 14:06:00,46.6,34.2,28.79,ESE,112,3.5,3.6,62,0.00,CLR,,0.00,WeatherDisplay:10.37,2013-12-02 20:06:00,
2013-12-02 14:11:00,46.8,34.4,28.79,East,90,4.6,4.6,62,0.00,CLR,,0.00,WeatherDisplay:10.37,2013-12-02 20:11:00,
2013-12-02 14:16:00,46.4,34.1,28.79,ESE,112,8.1,8.1,62,0.00,CLR,,0.00,WeatherDisplay:10.37,2013-12-02 20:16:00,
2013-12-02 14:21:00,46.2,34.3,28.76,East,90,5.8,5.8,63,0.00,CLR,,0.00,WeatherDisplay:10.37,2013-12-02 20:21:00,
2013-12-02 14:26:00,46.2,34.3,28.76,ESE,112,5.9,5.9,63,0.00,CLR,,0.00,WeatherDisplay:10.37,2013-12-02 20:26:00,
2013-12-02 14:31:00,45.5,33.6,28.76,ENE,68,8.1,8.1,63,0.00,CLR,,0.00,WeatherDisplay:10.37,2013-12-02 20:31:00,
2013-12-02 14:36:00,45.5,34.0,28.79,SE,135,3.3,3.3,64,0.00,CLR,,0.00,WeatherDisplay:10.37,2013-12-02 20:36:00,
2013-12-02 14:41:00,45.1,33.7,28.79,ESE,112,5.8,5.8,64,0.00,CLR,,0.00,WeatherDisplay:10.37,2013-12-02 20:41:00,
2013-12-02 14:46:00,44.8,33.3,28.79,SSE,158,3.6,3.6,64,0.00,CLR,,0.00,WeatherDisplay:10.37,2013-12-02 20:46:00,
2013-12-02 14:51:00,44.8,33.3,28.79,East,90,5.8,5.8,64,0.00,CLR,,0.00,WeatherDisplay:10.37,2013-12-02 20:51:00,
2013-12-02 14:56:00,44.6,33.2,28.79,East,90,6.9,6.9,64,0.00,CLR,,0.00,WeatherDisplay:10.37,2013-12-02 20:56:00,
2013-12-02 15:01:00,44.6,33.6,28.79,East,90,5.9,5.9,65,0.00,CLR,,0.00,WeatherDisplay:10.37,2013-12-02 21:01:00,
2013-12-02 15:06:00,44.2,33.2,28.79,ENE,68,4.6,4.6,65,0.00,CLR,,0.00,WeatherDisplay:10.37,2013-12-02 21:06:00,
2013-12-02 15:11:00,44.1,33.4,28.79,ESE,112,5.8,5.8,66,0.00,CLR,,0.00,WeatherDisplay:10.37,2013-12-02 21:11:00,
2013-12-02 15:16:00,43.7,33.8,28.79,ENE,68,6.9,6.9,68,0.00,CLR,,0.00,WeatherDisplay:10.37,2013-12-02 21:16:00,
2013-12-02 15:21:00,43.3,33.8,28.79,ENE,68,5.8,5.8,69,0.00,CLR,,0.00,WeatherDisplay:10.37,2013-12-02 21:21:00,
2013-12-02 15:26:00,43.2,34.0,28.79,East,90,5.8,5.8,70,0.00,CLR,,0.00,WeatherDisplay:10.37,2013-12-02 21:26:00,
2013-12-02 15:31:00,42.8,34.0,28.79,ESE,112,6.0,6.0,71,0.00,CLR,,0.00,WeatherDisplay:10.37,2013-12-02 21:31:00,
2013-12-02 15:36:00,42.4,34.4,28.79,ENE,68,6.9,6.9,73,0.00,CLR,,0.00,WeatherDisplay:10.37,2013-12-02 21:36:00,
2013-12-02 15:41:00,42.3,34.6,28.79,SE,135,7.1,7.1,74,0.00,CLR,,0.00,WeatherDisplay:10.37,2013-12-02 21:41:00,
2013-12-02 15:46:00,42.1,34.4,28.79,East,90,3.5,3.5,74,0.00,CLR,,0.00,WeatherDisplay:10.37,2013-12-02 21:46:00,
2013-12-02 15:51:00,41.7,34.4,28.79,East,90,5.8,5.8,75,0.00,CLR,,0.00,WeatherDisplay:10.37,2013-12-02 21:51:00,
2013-12-02 15:56:00,41.7,34.4,28.79,ENE,68,5.8,5.8,75,0.00,CLR,,0.00,WeatherDisplay:10.37,2013-12-02 21:56:00,
2013-12-02 16:01:00,41.7,34.7,28.79,ENE,68,6.9,6.9,76,0.00,CLR,,0.00,WeatherDisplay:10.37,2013-12-02 22:01:00,
2013-12-02 16:06:00,41.5,34.5,28.79,East,90,8.1,8.1,76,0.00,CLR,,0.00,WeatherDisplay:10.37,2013-12-02 22:06:00,
2013-12-02 16:11:00,41.4,34.4,28.79,ESE,112,5.8,5.8,76,0.00,CLR,,0.00,WeatherDisplay:10.37,2013-12-02 22:11:00,
2013-12-02 16:16:00,41.2,34.5,28.79,ESE,112,8.1,8.1,77,0.00,CLR,,0.00,WeatherDisplay:10.37,2013-12-02 22:16:00,
2013-12-02 16:21:00,41.0,34.3,28.79,SSE,158,5.8,5.8,77,0.00,CLR,,0.00,WeatherDisplay:10.37,2013-12-02 22:21:00,
2013-12-02 16:26:00,40.8,34.5,28.79,SE,135,6.9,6.9,78,0.00,CLR,,0.00,WeatherDisplay:10.37,2013-12-02 22:26:00,
2013-12-02 16:31:00,40.6,34.3,28.79,ESE,112,8.1,8.1,78,0.00,CLR,,0.00,WeatherDisplay:10.37,2013-12-02 22:31:00,
2013-12-02 16:36:00,40.6,34.6,28.76,ESE,112,8.1,8.1,79,0.00,CLR,,0.00,WeatherDisplay:10.37,2013-12-02 22:36:00,
2013-12-02 16:41:00,40.5,34.5,28.76,East,90,6.9,6.9,79,0.00,CLR,,0.00,WeatherDisplay:10.37,2013-12-02 22:41:00,
2013-12-02 16:46:00,40.5,34.5,28.76,ESE,112,6.4,6.4,79,0.00,CLR,,0.00,WeatherDisplay:10.37,2013-12-02 22:46:00,
2013-12-02 16:51:00,40.5,34.5,28.79,ESE,112,4.6,4.6,79,0.00,CLR,,0.00,WeatherDisplay:10.37,2013-12-02 22:51:00,
2013-12-02 16:56:00,40.3,34.6,28.79,East,90,8.1,8.1,80,0.00,CLR,,0.00,WeatherDisplay:10.37,2013-12-02 22:56:00,
2013-12-02 17:01:00,40.3,34.6,28.79,ENE,68,3.5,5.4,80,0.00,CLR,,0.00,WeatherDisplay:10.37,2013-12-02 23:01:00,
2013-12-02 17:06:00,39.9,34.6,28.76,ENE,68,10.4,10.4,81,0.00,CLR,,0.00,WeatherDisplay:10.37,2013-12-02 23:06:00,
2013-12-02 17:11:00,39.9,34.9,28.76,ESE,112,4.6,4.6,82,0.00,CLR,,0.00,WeatherDisplay:10.37,2013-12-02 23:11:00,
2013-12-02 17:16:00,40.3,34.9,28.76,ESE,112,4.3,7.4,81,0.00,CLR,,0.00,WeatherDisplay:10.37,2013-12-02 23:16:00,
2013-12-02 17:21:00,40.5,35.1,28.76,ESE,112,6.9,6.9,81,0.00,CLR,,0.00,WeatherDisplay:10.37,2013-12-02 23:21:00,
2013-12-02 17:26:00,40.5,35.4,28.76,ESE,112,8.1,8.1,82,0.00,CLR,,0.00,WeatherDisplay:10.37,2013-12-02 23:26:00,
2013-12-02 17:31:00,40.5,35.1,28.76,East,90,6.9,6.9,81,0.00,CLR,,0.00,WeatherDisplay:10.37,2013-12-02 23:31:00,
2013-12-02 17:36:00,40.6,35.6,28.76,East,90,5.8,5.8,82,0.00,CLR,,0.00,WeatherDisplay:10.37,2013-12-02 23:36:00,
2013-12-02 17:41:00,40.6,35.6,28.76,ESE,112,9.2,9.2,82,0.00,CLR,,0.00,WeatherDisplay:10.37,2013-12-02 23:41:00,
2013-12-02 17:46:00,40.6,35.6,28.76,East,90,9.8,9.8,82,0.00,CLR,,0.00,WeatherDisplay:10.37,2013-12-02 23:46:00,
2013-12-02 17:51:00,40.6,35.6,28.76,ESE,112,9.2,9.2,82,0.00,CLR,,0.00,WeatherDisplay:10.37,2013-12-02 23:51:00,
2013-12-02 17:56:00,40.6,35.9,28.76,ESE,112,11.5,11.5,83,0.00,CLR,,0.00,WeatherDisplay:10.37,2013-12-02 23:56:00,
2013-12-02 18:01:00,40.6,35.6,28.76,East,90,6.0,6.0,82,0.00,CLR,,0.00,WeatherDisplay:10.37,2013-12-03 00:01:00,
2013-12-02 18:06:00,40.6,35.6,28.73,East,90,10.7,10.7,82,0.00,CLR,,0.00,WeatherDisplay:10.37,2013-12-03 00:06:00,
2013-12-02 18:11:00,40.8,36.1,28.73,ESE,112,5.8,7.1,83,0.00,CLR,,0.00,WeatherDisplay:10.37,2013-12-03 00:11:00,
2013-12-02 18:16:00,40.6,35.6,28.73,SSE,158,5.9,5.9,82,0.00,CLR,,0.00,WeatherDisplay:10.37,2013-12-03 00:16:00,
2013-12-02 18:21:00,40.6,35.6,28.73,SSE,158,5.9,5.9,82,0.00,CLR,,0.00,WeatherDisplay:10.37,2013-12-03 00:21:00,
2013-12-02 18:26:00,40.8,36.1,28.73,ESE,112,10.4,10.4,83,0.00,CLR,,0.00,WeatherDisplay:10.37,2013-12-03 00:26:00,
2013-12-02 18:31:00,40.8,36.1,28.73,East,90,12.7,12.7,83,0.00,CLR,,0.00,WeatherDisplay:10.37,2013-12-03 00:31:00,
2013-12-02 18:36:00,40.8,36.1,28.73,SSE,158,6.9,6.9,83,0.00,CLR,,0.00,WeatherDisplay:10.37,2013-12-03 00:36:00,
2013-12-02 18:42:00,40.8,36.1,28.73,ESE,112,12.1,12.1,83,0.00,CLR,,0.00,WeatherDisplay:10.37,2013-12-03 00:42:00,
2013-12-02 18:47:00,40.8,36.1,28.73,ESE,112,14.3,14.3,83,0.00,CLR,,0.00,WeatherDisplay:10.37,2013-12-03 00:47:00,
2013-12-02 18:52:00,41.0,35.9,28.73,SSE,158,8.1,8.1,82,0.00,CLR,,0.00,WeatherDisplay:10.37,2013-12-03 00:52:00,
2013-12-02 18:57:00,41.0,35.9,28.73,ESE,112,9.2,9.2,82,0.00,CLR,,0.00,WeatherDisplay:10.37,2013-12-03 00:57:00,
2013-12-02 19:02:00,41.0,35.9,28.73,ESE,112,5.8,5.8,82,0.00,CLR,,0.00,WeatherDisplay:10.37,2013-12-03 01:02:00,
2013-12-02 19:07:00,41.0,35.9,28.73,East,90,12.7,12.7,82,0.00,CLR,,0.00,WeatherDisplay:10.37,2013-12-03 01:07:00,
2013-12-02 19:12:00,41.2,36.1,28.73,ESE,112,10.4,10.4,82,0.00,CLR,,0.00,WeatherDisplay:10.37,2013-12-03 01:12:00,
2013-12-02 19:17:00,41.2,36.1,28.73,East,90,6.9,6.9,82,0.00,CLR,,0.00,WeatherDisplay:10.37,2013-12-03 01:17:00,
2013-12-02 19:22:00,41.2,36.1,28.76,SE,135,8.1,8.1,82,0.00,CLR,,0.00,WeatherDisplay:10.37,2013-12-03 01:22:00,
2013-12-02 19:27:00,41.2,36.1,28.76,ENE,68,8.1,8.1,82,0.00,CLR,,0.00,WeatherDisplay:10.37,2013-12-03 01:27:00,
2013-12-02 19:32:00,41.2,36.1,28.76,ESE,112,10.4,10.4,82,0.00,CLR,,0.00,WeatherDisplay:10.37,2013-12-03 01:32:00,
2013-12-02 19:37:00,41.2,36.1,28.76,ESE,112,8.1,8.1,82,0.00,CLR,,0.00,WeatherDisplay:10.37,2013-12-03 01:37:00,
2013-12-02 19:42:00,41.2,36.1,28.76,SE,135,8.1,8.1,82,0.00,CLR,,0.00,WeatherDisplay:10.37,2013-12-03 01:42:00,
2013-12-02 19:47:00,41.0,35.9,28.76,SE,135,9.2,9.2,82,0.00,CLR,,0.00,WeatherDisplay:10.37,2013-12-03 01:47:00,
2013-12-02 19:52:00,40.8,36.1,28.79,SE,135,8.1,8.1,83,0.00,CLR,,0.00,WeatherDisplay:10.37,2013-12-03 01:52:00,
2013-12-02 19:57:00,40.6,35.9,28.79,South,180,5.8,5.9,83,0.00,CLR,,0.00,WeatherDisplay:10.37,2013-12-03 01:57:00,
2013-12-02 20:02:00,40.6,35.9,28.79,ESE,112,11.5,11.5,83,0.00,CLR,,0.00,WeatherDisplay:10.37,2013-12-03 02:02:00,
2013-12-02 20:07:00,40.6,35.9,28.79,ESE,112,10.4,10.4,83,0.00,CLR,,0.00,WeatherDisplay:10.37,2013-12-03 02:07:00,
2013-12-02 20:12:00,40.3,35.8,28.79,SSW,202,6.0,6.0,84,0.00,CLR,,0.00,WeatherDisplay:10.37,2013-12-03 02:12:00,
2013-12-02 20:17:00,39.7,35.3,28.79,ESE,112,4.6,4.6,84,0.00,CLR,,0.00,WeatherDisplay:10.37,2013-12-03 02:17:00,
2013-12-02 20:22:00,39.4,35.2,28.76,ESE,112,5.8,5.8,85,0.00,CLR,,0.00,WeatherDisplay:10.37,2013-12-03 02:22:00,
2013-12-02 20:27:00,39.2,35.4,28.76,ESE,112,5.8,5.8,86,0.00,CLR,,0.00,WeatherDisplay:10.37,2013-12-03 02:27:00,
2013-12-02 20:32:00,38.8,35.0,28.76,ESE,112,5.8,5.8,86,0.00,CLR,,0.00,WeatherDisplay:10.37,2013-12-03 02:32:00,
2013-12-02 20:37:00,38.7,34.8,28.79,ESE,112,5.9,5.9,86,0.00,CLR,,0.00,WeatherDisplay:10.37,2013-12-03 02:37:00,
2013-12-02 20:42:00,38.7,35.1,28.79,ESE,112,5.8,5.8,87,0.00,CLR,,0.00,WeatherDisplay:10.37,2013-12-03 02:42:00,
2013-12-02 20:47:00,38.5,34.9,28.79,SSE,158,3.6,4.5,87,0.00,CLR,,0.00,WeatherDisplay:10.37,2013-12-03 02:47:00,
2013-12-02 20:52:00,38.5,34.9,28.79,ESE,112,5.8,5.8,87,0.00,CLR,,0.00,WeatherDisplay:10.37,2013-12-03 02:52:00,
2013-12-02 20:57:00,38.5,35.2,28.79,ESE,112,8.1,8.1,88,0.00,CLR,,0.00,WeatherDisplay:10.37,2013-12-03 02:57:00,
2013-12-02 21:02:00,38.3,35.1,28.79,SE,135,5.8,5.8,88,0.00,CLR,,0.00,WeatherDisplay:10.37,2013-12-03 03:02:00,
2013-12-02 21:07:00,38.3,35.1,28.76,East,90,4.6,4.6,88,0.00,CLR,,0.00,WeatherDisplay:10.37,2013-12-03 03:07:00,
2013-12-02 21:12:00,38.3,35.1,28.76,ESE,112,8.7,8.7,88,0.00,CLR,,0.00,WeatherDisplay:10.37,2013-12-03 03:12:00,
2013-12-02 21:17:00,38.3,35.1,28.76,ESE,112,5.8,5.8,88,0.00,CLR,,0.00,WeatherDisplay:10.37,2013-12-03 03:17:00,
2013-12-02 21:22:00,38.5,35.2,28.76,SSE,158,4.6,4.7,88,0.00,CLR,,0.00,WeatherDisplay:10.37,2013-12-03 03:22:00,
2013-12-02 21:27:00,38.1,34.9,28.76,ESE,112,6.9,6.9,88,0.00,CLR,,0.00,WeatherDisplay:10.37,2013-12-03 03:27:00,
2013-12-02 21:32:00,38.1,34.9,28.76,SE,135,4.6,4.6,88,0.00,CLR,,0.00,WeatherDisplay:10.37,2013-12-03 03:32:00,
2013-12-02 21:37:00,38.1,35.2,28.76,East,90,4.6,4.6,89,0.00,CLR,,0.00,WeatherDisplay:10.37,2013-12-03 03:37:00,
2013-12-02 21:42:00,38.3,35.3,28.76,SE,135,4.6,4.6,89,0.00,CLR,,0.00,WeatherDisplay:10.37,2013-12-03 03:42:00,
2013-12-02 21:47:00,38.1,35.4,28.76,ESE,112,6.2,6.2,90,0.00,CLR,,0.00,WeatherDisplay:10.37,2013-12-03 03:47:00,
2013-12-02 21:52:00,38.1,35.2,28.76,SSE,158,7.6,7.6,89,0.00,CLR,,0.00,WeatherDisplay:10.37,2013-12-03 03:52:00,
2013-12-02 21:57:00,38.5,35.5,28.76,SSE,158,9.2,9.2,89,0.00,CLR,,0.00,WeatherDisplay:10.37,2013-12-03 03:57:00,
2013-12-02 22:02:00,38.3,35.6,28.76,SSE,158,8.1,8.1,90,0.00,CLR,,0.00,WeatherDisplay:10.37,2013-12-03 04:02:00,
2013-12-02 22:07:00,38.3,35.6,28.76,SSE,158,6.7,6.7,90,0.00,CLR,,0.00,WeatherDisplay:10.37,2013-12-03 04:07:00,
2013-12-02 22:12:00,38.3,35.6,28.76,ESE,112,5.8,5.8,90,0.00,CLR,,0.00,WeatherDisplay:10.37,2013-12-03 04:12:00,
2013-12-02 22:17:00,38.3,35.6,28.76,SE,135,5.4,5.4,90,0.00,CLR,,0.00,WeatherDisplay:10.37,2013-12-03 04:17:00,
2013-12-02 22:22:00,38.3,35.9,28.76,ESE,112,6.9,6.9,91,0.00,CLR,,0.00,WeatherDisplay:10.37,2013-12-03 04:22:00,
2013-12-02 22:27:00,38.5,36.1,28.76,SE,135,8.1,8.1,91,0.00,CLR,,0.00,WeatherDisplay:10.37,2013-12-03 04:27:00,
2013-12-02 22:32:00,38.5,36.1,28.76,East,90,6.9,6.9,91,0.00,CLR,,0.00,WeatherDisplay:10.37,2013-12-03 04:32:00,
2013-12-02 22:37:00,38.5,36.1,28.76,SE,135,10.4,10.4,91,0.00,CLR,,0.00,WeatherDisplay:10.37,2013-12-03 04:37:00,
2013-12-02 22:42:00,38.7,36.3,28.76,SE,135,8.5,8.5,91,0.00,CLR,,0.00,WeatherDisplay:10.37,2013-12-03 04:42:00,
2013-12-02 22:47:00,38.5,36.4,28.76,ESE,112,8.1,8.1,92,0.00,CLR,,0.00,WeatherDisplay:10.37,2013-12-03 04:47:00,
2013-12-02 22:52:00,38.5,36.4,28.73,SE,135,9.2,9.2,92,0.00,CLR,,0.00,WeatherDisplay:10.37,2013-12-03 04:52:00,
2013-12-02 22:57:00,38.5,36.4,28.73,ENE,68,6.9,6.9,92,0.00,CLR,,0.00,WeatherDisplay:10.37,2013-12-03 04:57:00,
2013-12-02 23:01:00,38.5,36.4,28.73,SE,135,10.4,10.4,92,0.00,CLR,,0.00,WeatherDisplay:10.37,2013-12-03 05:01:00,
2013-12-02 23:02:00,38.5,36.4,28.73,SE,135,9.2,9.2,92,0.00,CLR,,0.00,WeatherDisplay:10.37,2013-12-03 05:02:00,
2013-12-02 23:07:00,38.5,36.6,28.73,SE,135,8.1,8.1,93,0.00,CLR,,0.00,WeatherDisplay:10.37,2013-12-03 05:07:00,
2013-12-02 23:12:00,38.3,36.5,28.73,East,90,5.8,5.8,93,0.00,CLR,,0.00,WeatherDisplay:10.37,2013-12-03 05:12:00,
2013-12-02 23:17:00,38.3,36.5,28.73,SSE,158,9.2,9.2,93,0.00,CLR,,0.00,WeatherDisplay:10.37,2013-12-03 05:17:00,
2013-12-02 23:22:00,38.1,36.3,28.73,ESE,112,6.9,6.9,93,0.00,CLR,,0.00,WeatherDisplay:10.37,2013-12-03 05:22:00,
2013-12-02 23:27:00,38.1,36.3,28.73,SE,135,6.9,6.9,93,0.00,CLR,,0.00,WeatherDisplay:10.37,2013-12-03 05:27:00,
2013-12-02 23:32:00,38.1,36.3,28.73,SE,135,5.8,5.8,93,0.00,CLR,,0.00,WeatherDisplay:10.37,2013-12-03 05:32:00,
2013-12-02 23:37:00,37.9,36.1,28.73,SSE,158,4.6,4.6,93,0.00,CLR,,0.00,WeatherDisplay:10.37,2013-12-03 05:37:00,
2013-12-02 23:42:00,37.9,36.4,28.73,SSE,158,5.8,5.8,94,0.00,CLR,,0.00,WeatherDisplay:10.37,2013-12-03 05:42:00,
2013-12-02 23:47:00,37.6,35.7,28.73,SSE,158,4.6,4.6,93,0.00,CLR,,0.00,WeatherDisplay:10.37,2013-12-03 05:47:00,
2013-12-02 23:52:00,37.4,35.6,28.73,East,90,4.6,4.6,93,0.00,CLR,,0.00,WeatherDisplay:10.37,2013-12-03 05:52:00,
2013-12-02 23:57:00,37.0,35.5,28.73,SE,135,4.6,4.6,94,0.00,CLR,,0.00,WeatherDisplay:10.37,2013-12-03 05:57:00,